| time (UTC) | temp F | wind direction | speed knots | gust knots | rain 1hr in | rain 24hr in | rain mn in | humidity % | barometer mb |
| 20260503214617 | 78 | 327 | 0.9 | 5.2 | 0.00 | 0.00 | 0.00 | 45 | 1011.2 |
| 20260503213121 | 76 | 61 | 3.5 | 7.8 | 0.00 | 0.00 | 0.00 | 47 | 1011.4 |
| 20260503211647 | 76 | 294 | 2.6 | 6.1 | 0.00 | 0.00 | 0.00 | 46 | 1011.6 |
| 20260503210129 | 76 | 13 | 1.7 | 6.1 | 0.00 | 0.00 | 0.00 | 48 | 1011.7 |
| 20260503204613 | 75 | 330 | 4.3 | 7.0 | 0.00 | 0.00 | 0.00 | 49 | 1011.9 |
| 20260503203116 | 76 | 300 | 0.0 | 7.0 | 0.00 | 0.00 | 0.00 | 51 | 1012.1 |
| 20260503201619 | 75 | 20 | 0.0 | 7.0 | 0.00 | 0.00 | 0.00 | 51 | 1012.2 |
| 20260503200125 | 74 | 350 | 0.0 | 7.0 | 0.00 | 0.00 | 0.00 | 52 | 1012.4 |
| 20260503194628 | 74 | 20 | 0.9 | 5.2 | 0.00 | 0.00 | 0.00 | 53 | 1012.6 |
| 20260503193115 | 74 | 35 | 0.9 | 4.3 | 0.00 | 0.00 | 0.00 | 53 | 1012.9 |
| 20260503191635 | 74 | 348 | 2.6 | 6.1 | 0.00 | 0.00 | 0.00 | 51 | 1013.0 |
| 20260503190118 | 73 | 340 | 0.0 | 4.3 | 0.00 | 0.00 | 0.00 | 55 | 1013.1 |
| 20260503184622 | 72 | 39 | 1.7 | 6.1 | 0.00 | 0.00 | 0.00 | 56 | 1013.2 |
| 20260503183148 | 71 | 51 | 0.9 | 4.3 | 0.00 | 0.00 | 0.00 | 57 | 1013.4 |
| 20260503181631 | 70 | 59 | 0.0 | 6.1 | 0.00 | 0.00 | 0.00 | 58 | 1013.6 |
| 20260503180140 | 69 | 311 | 0.0 | 5.2 | 0.00 | 0.00 | 0.00 | 60 | 1013.7 |
| 20260503174622 | 68 | 31 | 0.9 | 4.3 | 0.00 | 0.00 | 0.00 | 61 | 1013.8 |
| 20260503173130 | 67 | 19 | 1.7 | 6.1 | 0.00 | 0.00 | 0.00 | 63 | 1013.8 |
| 20260503171632 | 67 | 353 | 0.0 | 5.2 | 0.00 | 0.00 | 0.00 | 63 | 1013.8 |
| 20260503170117 | 67 | 307 | 0.9 | 5.2 | 0.00 | 0.00 | 0.00 | 64 | 1013.9 |
| 20260503160117 | 65 | 34 | 0.9 | 3.5 | 0.00 | 0.00 | 0.00 | 64 | 1014.1 |
| 20260503150118 | 59 | 338 | 0.0 | 0.0 | 0.00 | 0.00 | 0.00 | 85 | 1014.1 |
| 20260503140115 | 52 | 338 | 0.0 | 0.0 | 0.00 | 0.00 | 0.00 | 91 | 1013.9 |
| 20260503130118 | 50 | 333 | 0.0 | 0.0 | 0.00 | 0.00 | 0.00 | 91 | 1013.7 |
| 20260503120132 | 51 | 333 | 0.0 | 0.0 | 0.00 | 0.00 | 0.00 | 90 | 1013.8 |
| 20260503110130 | 51 | 135 | 0.0 | 0.0 | 0.00 | 0.00 | 0.00 | 90 | 1013.9 |
| 20260503100138 | 52 | 135 | 0.0 | 0.0 | 0.00 | 0.00 | 0.00 | 88 | 1013.9 |
| 20260503090140 | 53 | 135 | 0.0 | 0.0 | 0.00 | 0.00 | 0.00 | 86 | 1014.1 |
| 20260503081627 | 54 | 19 | 0.0 | 0.0 | 0.00 | 0.00 | 0.00 | 84 | 1014.2 |
| 20260503080113 | 55 | 19 | 0.0 | 0.0 | 0.00 | 0.00 | 0.00 | 82 | 1014.2 |
| 20260503071626 | 55 | 19 | 0.0 | 0.0 | 0.00 | 0.00 | 0.00 | 83 | 1014.2 |
| 20260503070130 | 55 | 19 | 0.0 | 0.0 | 0.00 | 0.00 | 0.00 | 82 | 1014.2 |
| 20260503060123 | 57 | 19 | 0.0 | 0.0 | 0.00 | 0.00 | 0.00 | 77 | 1014.0 |
| 20260503054625 | 58 | 19 | 0.0 | 0.0 | 0.00 | 0.00 | 0.00 | 75 | 1014.0 |
| 20260503053130 | 59 | 19 | 0.0 | 0.0 | 0.00 | 0.00 | 0.00 | 74 | 1014.0 |
| 20260503051616 | 60 | 19 | 0.0 | 0.0 | 0.00 | 0.00 | 0.00 | 70 | 1013.9 |
| 20260503050116 | 61 | 19 | 0.0 | 0.0 | 0.00 | 0.00 | 0.00 | 69 | 1013.8 |
| 20260503044621 | 62 | 16 | 0.0 | 0.0 | 0.00 | 0.00 | 0.00 | 67 | 1013.8 |
| 20260503043125 | 63 | 16 | 0.0 | 0.0 | 0.00 | 0.00 | 0.00 | 64 | 1013.6 |
| 20260503041625 | 64 | 14 | 0.0 | 0.0 | 0.00 | 0.00 | 0.00 | 63 | 1013.3 |
| 20260503040113 | 64 | 355 | 0.0 | 2.6 | 0.00 | 0.00 | 0.00 | 61 | 1013.2 |
| 20260503034613 | 65 | 346 | 0.0 | 0.0 | 0.00 | 0.00 | 0.00 | 61 | 1013.0 |
| 20260503033123 | 66 | 30 | 0.0 | 4.3 | 0.00 | 0.00 | 0.00 | 58 | 1012.8 |
| 20260503031624 | 67 | 359 | 0.0 | 0.9 | 0.00 | 0.00 | 0.00 | 57 | 1012.6 |
| 20260503030148 | 68 | 5 | 0.0 | 0.0 | 0.00 | 0.00 | 0.00 | 55 | 1012.4 |
| 20260503024633 | 69 | 314 | 0.0 | 0.0 | 0.00 | 0.00 | 0.00 | 55 | 1012.3 |
| 20260503023118 | 70 | 14 | 0.0 | 0.0 | 0.00 | 0.00 | 0.00 | 53 | 1012.3 |
| 20260503021619 | 70 | 312 | 0.0 | 0.0 | 0.00 | 0.00 | 0.00 | 52 | 1012.3 |
| 20260503020148 | 71 | 293 | 0.9 | 7.8 | 0.00 | 0.00 | 0.00 | 51 | 1012.3 |
| 20260503014629 | 72 | 305 | 0.0 | 5.2 | 0.00 | 0.00 | 0.00 | 50 | 1012.3 |
| 20260503013118 | 72 | 19 | 4.3 | 7.0 | 0.00 | 0.00 | 0.00 | 50 | 1012.4 |
| 20260503011637 | 72 | 323 | 0.0 | 7.0 | 0.00 | 0.00 | 0.00 | 51 | 1012.4 |
| 20260503010119 | 72 | 328 | 1.7 | 7.0 | 0.00 | 0.00 | 0.00 | 50 | 1012.4 |
| 20260503004622 | 72 | 1 | 3.5 | 7.8 | 0.00 | 0.00 | 0.00 | 48 | 1012.6 |
| 20260503003126 | 72 | 284 | 0.9 | 4.3 | 0.00 | 0.00 | 0.00 | 49 | 1012.6 |
| 20260503001650 | 72 | 295 | 3.5 | 9.6 | 0.00 | 0.00 | 0.00 | 49 | 1012.7 |
| 20260503000117 | 72 | 7 | 3.5 | 8.7 | 0.00 | 0.00 | 0.00 | 50 | 1012.9 |
| 20260502234617 | 72 | 359 | 0.9 | 8.7 | 0.00 | 0.00 | 0.00 | 52 | 1012.9 |
| 20260502233124 | 72 | 328 | 2.6 | 8.7 | 0.00 | 0.00 | 0.00 | 54 | 1013.2 |
| 20260502231625 | 71 | 334 | 2.6 | 8.7 | 0.00 | 0.00 | 0.00 | 56 | 1013.4 |
| 20260502230130 | 71 | 324 | 1.7 | 8.7 | 0.00 | 0.00 | 0.00 | 57 | 1013.7 |
| 20260502224615 | 71 | 3 | 3.5 | 7.0 | 0.00 | 0.00 | 0.00 | 57 | 1013.9 |
| 20260502223118 | 71 | 341 | 4.3 | 7.0 | 0.00 | 0.00 | 0.00 | 57 | 1014.0 |
| 20260502221641 | 71 | 13 | 2.6 | 7.8 | 0.00 | 0.00 | 0.00 | 59 | 1014.2 |
| 20260502220126 | 71 | 266 | 3.5 | 6.1 | 0.00 | 0.00 | 0.00 | 58 | 1014.3 |